STARLINK-30845, 58207

Orbit data source: Space-Track

STARLINK-30845, 58207 is a payload satellite owned by SpaceX/Seattle (US) in LEO that was launched on Fri, 03 Nov 2023 UTC via an FALCON 9 launch vehicle from the Air Force Eastern Test Range (AFETR). Payload-class satellites include a variety of spacecraft equipped with specific instruments for various scientific and technological missions. These include communications satellites like Starlink; space stations such as the ISS; scientific satellites like the Hubble; Earth observation satellites from companies like Planet Labs, Umbra, and HawkEye 360; GPS; miniature CubeSats for education and research; and military/defense satellites.

Loading next visibility...
Identifier
58207, 2023-170B
Orbit
LEO
Country
Flag of USUS
Related business
Manufacturer
SpaceX/Seattle
Mission
Operational Commercial Communications
Bus & Motor
STARLINK V2M, Unknown motor
Mass
730 kg wet, ~700 kg dry
Launch date (UTC)
2023-11-03 (3 years ago)
Launch vehicle
FALCON 9
Launch site
Air Force Eastern Test Range (AFETR)
Object type
Payload
Rocket body
Debris
Shape & HBR
Box + 2 Pan, 17.7 m
Radar Cross Section
33.884 m², Large (>1 m²)

Expand to show TLE details & history
Last TLE update: 3 days ago

TLE from 3 days ago
0 STARLINK-30845
1 58207U 23170B   26170.59665801  .00015059  00000-0  10004-2 0  9998
2 58207  42.9987   0.0885 0002847 265.4788  94.5731 15.07009636145630
Epoch: 2026-06-19T14:19Z
TLE epoch observation values (Epoch: 2026-06-19T14:19:11.252Z)
Latitude
0.00002°
Longitude
-122.53173°
Altitude
545.279 km
Speed
7.591 km/s
True Right ascension
00h 00m 21s
True Declination
0° 00' 00"
Sunlit
Object was in daylight at epoch
Visualization orbit readout
Latitude
Unknown
Longitude
Unknown
Altitude
Unknown
Speed
Unknown
Apparent Right ascension
Unknown
Apparent Declination
Unknown
Sunlit
N/A
Visualization observer readout
Local Sidereal Time
21:39:37
Azimuth
Unknown
Elevation
Unknown
Doppler factor
Unknown
Orbital elements
Apogee altitude
549.243 km
Perigee altitude
545.3 km
Semi-major axis
6,925.409 km
Eccentricity
0.00028
Inclination
42.9987°
RAAN
0.0885°
Arg. of periapsis
265.4788°
True anomaly
94.60562°
Mean anomaly
94.5731°
Eccentric anomaly
94.58936°
Mean motion
3.76595 °/min
Orbital period
95.59 mins
BSTAR
0.0010004
Loading maneuver chart data...
Computing Atmospheric mass density...
Loading historical data...
Loading historical data...
Loading historical data...
Loading historical data...
Loading historical data...
Loading historical data...
Loading historical data...

Documentation

Showing up to 5 results
|